Temp_Advection
nan nan nan nan nan nan nan nan nan nan nan nan nan nan nan nan nan nan nan nan nan nan nan nan nan nan nan nan nan nan nan nan nan nan nan nan nan nan nan nan nan nan nan nan nan
nan -0 0 0 0 -0 -0 0 -0 0 0 0 0 -0 0 -0 -0 -0 -0 -0 -0 -0 -0 0 0 0 0 0 -0 -0 0 -0 0 0 0 0 0 0 -0 -0 -0 0 0 0 nan
nan -0 -0 0 0 -0 0 0 -0 -0 -0 -0 0 0 0 -0 0 -0 -0 -0 -0 -0 -0 -0 0 0 0 -0 -0 -0 -0 0 0 0 0 0 0 0 0 -0 -0 -0 0 0 nan
nan -0 -0 -0 -0 0 0 0 0 0 0 -0 -0 0 -0 -0 -0 -0 -0 0 0 -0 -0 -0 -0 -0 -0 0 -0 -0 -0 0 0 0 -0 -0 -0 -0 -0 -0 -0 -0 0 0 nan
nan 0 0 -0 -0 -0 0 0 0 0 0 -0 -0 0 -0 0 0 -0 0 0 0 -0 -0 -0 -0 -0 -0 0 0 -0 0 0 0 -0 -0 -0 -0 -0 -0 -0 0 -0 -0 0 nan
nan 0 0 0 -0 -0 -0 0 1 0 -0 -0 -0 0 -0 0 -0 0 0 0 0 0 -0 -0 -0 -0 -1 -0 -0 -0 -0 0 -0 -0 -0 -0 -0 -0 -0 -0 -0 -0 0 0 nan
nan 0 -0 -0 -0 0 0 0 0 0 -0 0 0 -0 0 -0 -0 0 0 0 0 0 0 0 0 -0 -0 -0 0 0 -0 -0 -0 -0 -0 0 -0 -0 -0 -0 -0 -0 -0 0 nan
nan -0 -0 -0 0 -0 -0 0 0 0 -0 -0 0 -0 -0 -0 0 0 0 0 0 0 0 0 0 -0 -0 -0 -0 -0 0 0 0 -0 -0 0 -0 -0 0 -0 -1 -1 -0 0 nan
nan 0 -0 -0 -0 -0 -0 -0 -0 0 0 -0 0 -0 -0 -0 0 0 0 0 0 0 0 0 -0 -1 -0 -0 -0 0 -0 0 0 -0 -0 0 -0 0 -0 -0 -0 -0 -0 0 nan
nan -0 -0 0 -0 -0 -0 0 0 0 0 0 0 0 -0 -0 0 0 1 0 0 0 0 -0 -1 -1 -0 0 -0 -0 0 -0 0 0 -0 -0 0 -1 -1 -0 -0 -0 -0 -0 nan
nan 0 0 -0 -0 0 -0 -0 0 -0 -1 -0 0 0 0 0 0 0 0 0 0 -1 -1 -1 -1 0 0 0 0 0 0 -0 -0 -0 -0 0 0 -1 -1 -0 -0 -0 0 0 nan
nan 0 0 -0 -0 -0 -0 -0 -0 0 0 0 0 0 0 0 0 0 0 -0 -1 -0 -0 -1 0 -0 0 -0 0 0 0 -0 0 -0 -0 -0 -0 -0 -0 -0 -0 0 0 0 nan
nan 0 0 0 0 0 -0 -0 -0 0 -0 -0 -0 0 0 -0 -0 -0 -0 -0 -1 -0 -0 0 -0 -0 -0 -0 -0 0 0 -0 0 -0 -0 -0 -0 0 0 -0 -0 0 0 0 nan
nan 0 0 0 0 -0 -0 -0 -0 -0 -0 -1 -0 0 0 -0 -0 0 -0 -0 -1 -0 -0 0 -0 0 -0 -0 0 -0 -0 -0 -0 -0 -0 0 -0 -0 -0 0 -0 0 0 0 nan
nan 0 0 0 0 -0 -0 0 -0 0 -0 -0 -0 -0 -0 -0 -0 0 0 -0 -0 0 0 0 0 -0 -0 -0 -0 0 -0 -0 -0 -0 -0 0 -0 -1 -0 -0 0 0 0 0 nan
nan 0 0 -0 -0 -0 -0 -0 -0 -1 -0 -0 -0 -0 -0 -0 -0 -0 -0 -1 -0 -0 -0 0 -0 -0 -0 -0 -0 0 -0 -0 -0 0 0 -0 0 -0 -0 0 0 0 0 0 nan
nan -0 -0 -0 -0 -0 -0 -0 -1 1 -0 0 -0 -0 -0 -0 -0 -0 -0 -0 -0 -0 -0 0 -0 0 0 -0 -0 -0 -0 -0 0 0 -0 0 0 -1 -0 0 0 -0 -0 0 nan
nan -0 -0 -0 -0 -0 0 -1 0 -0 -0 -0 0 -0 -0 0 -0 -0 -0 -0 -0 -0 -0 0 -0 0 -0 -0 -0 -0 -0 0 -0 0 0 -0 -0 -0 0 -0 -0 -0 0 0 nan
nan -0 -0 -0 0 0 -0 -1 0 0 -0 0 0 -0 0 0 -0 -0 -0 -0 0 0 -0 -0 0 -0 -0 0 -0 -0 -0 -0 -0 0 0 -0 -0 -0 -0 -0 0 1 0 0 nan
nan -0 0 0 0 0 -1 0 0 -0 -0 -0 0 -0 -0 -0 -0 -0 0 0 -0 -0 -0 0 -0 -0 0 0 -0 -0 -0 -0 0 -0 0 0 -0 0 0 0 0 -0 -1 -0 nan
nan -0 0 0 -0 -2 -1 0 0 0 0 -0 0 -0 0 0 -0 0 -0 0 -0 -0 -0 -0 0 -0 -0 0 0 0 -0 -0 -0 0 0 0 0 -0 -0 0 -0 -1 -1 0 nan
nan -0 0 -0 -2 -1 0 0 0 -0 -0 -0 0 -0 0 0 -0 0 0 0 0 -0 -0 -0 -0 0 -0 -0 -0 -0 0 -0 0 0 0 0 -1 0 0 -0 -1 -1 0 0 nan
nan -0 -0 -1 -1 0 0 0 0 -0 -0 0 -0 -0 -0 0 -0 -0 -0 -0 -0 -0 -0 -0 -0 0 -0 0 -0 0 0 -0 -0 0 -0 0 -0 0 0 -0 -0 -0 0 0 nan
nan -0 -0 -2 -1 -0 0 0 0 0 0 0 0 0 -0 -0 -0 0 0 -0 -0 -0 -0 -0 -0 -0 0 0 -0 0 0 0 -0 -0 -0 -0 -1 -0 0 0 -1 -1 0 0 nan
nan -0 -0 -0 0 0 0 0 0 0 0 0 0 0 0 -0 -0 0 0 0 0 0 -0 0 0 0 -0 -0 -0 -0 0 0 -0 -1 -0 0 -0 -0 0 -0 -2 0 1 0 nan
nan -0 -0 -0 -0 -0 -0 -0 -0 0 -0 0 -0 -0 0 0 0 0 -0 -0 0 0 0 -0 -0 -0 -0 -0 0 -0 0 -0 -0 0 -0 -1 -1 -1 0 1 -0 0 1 -0 nan
nan nan nan nan nan nan nan nan nan nan nan nan nan nan nan nan nan nan nan nan nan nan nan nan nan nan nan nan nan nan nan nan nan nan nan nan nan nan nan nan nan nan nan nan nan
Wind_Speed
8 5 5 2 8 9 12 14 14 11 10 14 18 11 10 15 15 9 9 9 7 10 13 14 14 12 9 4 2 1 4 3 6 6 3 4 3 2 1 2 5 4 4 3 4
8 4 3 6 8 10 12 12 12 12 15 10 11 9 15 13 10 8 8 9 11 12 14 15 14 13 5 3 2 4 3 8 3 3 3 3 2 0 1 1 4 7 7 5 6
9 8 6 5 5 11 14 14 15 9 9 8 6 16 14 12 8 7 7 10 15 15 15 15 13 7 3 2 3 3 2 3 2 3 2 2 2 1 1 2 7 4 8 7 9
12 7 14 10 12 15 11 15 17 9 5 14 15 15 11 12 3 5 6 12 15 16 17 14 12 6 3 4 3 6 4 2 3 3 1 1 2 2 5 4 2 3 4 7 8
15 18 17 19 10 7 8 12 14 14 19 16 12 5 7 3 5 4 8 15 16 15 15 9 10 6 6 4 4 4 3 5 4 4 3 3 4 5 9 8 11 10 6 6 8
19 20 19 18 18 15 18 21 25 24 19 9 5 7 7 3 3 2 10 16 15 14 12 9 6 8 10 4 4 4 8 6 4 3 2 3 3 5 1 7 4 4 12 12 9
17 16 17 18 18 19 23 23 24 18 10 6 10 9 5 2 2 4 11 15 15 13 10 7 11 2 7 5 6 9 4 3 7 5 2 5 1 5 2 4 5 5 5 5 8
13 14 11 12 16 16 19 16 10 9 8 8 10 8 7 5 4 5 12 14 14 11 9 9 9 10 5 13 6 5 5 2 3 8 4 3 6 1 1 13 20 15 11 8 6
10 12 12 13 13 12 11 7 8 6 5 9 8 10 6 4 3 10 12 15 14 11 11 8 4 7 5 5 5 7 2 1 1 6 4 4 5 3 10 23 22 15 12 11 8
11 11 12 12 11 11 12 11 9 7 8 8 9 10 5 3 6 10 14 14 11 13 8 4 6 4 5 5 3 3 2 1 2 5 5 4 11 7 21 14 14 14 9 12 9
10 11 10 12 11 12 11 9 2 8 22 11 9 10 11 10 10 9 13 15 12 8 4 6 8 3 2 2 2 5 3 2 1 2 4 2 8 8 16 6 8 9 3 5 4
4 4 3 4 2 6 8 1 7 8 12 18 13 14 10 4 4 10 7 5 5 4 3 7 4 1 1 5 6 6 3 3 4 3 2 6 13 6 4 3 5 6 8 8 11
6 8 11 11 11 10 11 15 10 4 6 8 13 9 6 7 7 12 6 6 7 6 5 7 3 2 3 5 5 4 3 1 2 6 1 7 6 3 0 3 6 8 7 8 9
7 5 4 4 6 6 5 4 1 1 5 10 8 7 7 2 6 12 8 4 7 5 4 6 2 2 4 5 2 1 1 2 3 5 3 5 5 4 2 1 3 4 6 6 6
9 5 4 5 3 3 3 3 2 1 5 7 5 4 9 7 4 9 12 8 5 4 3 1 2 4 6 1 2 2 3 3 2 3 3 3 3 6 2 4 4 3 6 6 6
10 7 5 2 2 2 3 4 1 6 1 5 4 4 3 8 4 3 6 10 5 5 7 3 2 3 2 3 4 5 4 5 4 2 2 3 4 5 4 4 3 5 7 7 7
11 9 6 4 3 4 3 1 5 6 3 3 3 4 4 5 5 5 5 6 3 5 4 4 3 2 2 3 2 4 5 4 5 4 5 2 2 10 5 4 5 11 12 10 8
16 13 10 7 5 4 3 5 8 1 1 1 1 2 4 4 4 5 3 3 5 5 3 4 5 2 3 2 4 2 4 5 5 2 5 2 6 6 5 5 7 13 12 11 11
3 13 13 10 7 7 1 6 5 2 1 1 1 4 4 3 3 5 4 2 0 2 4 4 1 1 3 1 2 2 1 2 6 2 2 3 8 7 4 3 5 11 13 12 11
4 0 18 9 9 6 6 3 1 2 3 1 2 1 2 3 3 3 1 1 2 2 1 3 2 1 0 2 4 1 5 3 3 1 4 5 6 5 5 9 7 8 14 13 10
5 2 19 9 6 7 4 2 1 2 3 4 1 2 2 2 2 1 2 1 1 2 3 3 3 2 2 4 6 2 1 3 2 4 4 3 6 6 6 8 9 16 18 16 12
6 3 18 7 7 4 3 1 1 3 6 4 3 3 1 1 2 2 2 1 1 3 3 1 4 3 5 2 2 2 4 4 4 3 1 1 7 3 6 9 16 19 16 14 10
4 6 14 7 4 3 1 3 3 3 3 3 3 4 3 4 3 3 2 3 2 2 4 4 1 3 5 3 2 3 4 4 4 2 6 4 6 2 3 3 11 14 16 15 9
6 4 8 13 8 6 2 2 2 1 2 2 2 2 3 3 3 2 1 1 1 2 3 3 2 5 6 4 3 4 4 5 5 3 4 7 8 4 2 6 12 16 16 16 11
7 3 4 4 8 6 2 1 2 3 3 2 1 2 3 2 1 3 3 2 1 4 3 4 2 3 5 7 4 6 7 7 10 11 8 4 9 7 6 8 21 24 13 16 12
4 3 3 3 4 5 6 4 1 0 2 1 1 1 1 2 4 5 4 3 4 1 4 1 2 3 4 1 5 6 11 15 12 9 10 18 23 21 26 15 19 22 19 18 14
8 5 1 2 2 3 1 3 4 5 2 2 2 2 2 5 5 4 5 2 1 6 5 3 3 1 5 3 7 7 9 11 5 6 7 8 11 6 4 7 11 13 18 20 16
Wind_Direction
53 56 84 116 189 189 195 191 200 202 223 189 201 221 214 179 183 177 186 180 169 174 164 157 156 156 156 151 118 125 65 142 181 152 169 149 136 148 173 177 199 213 216 230 195
42 68 165 174 182 190 190 182 185 177 192 155 178 194 167 170 169 191 191 178 168 167 159 159 162 157 151 123 74 72 95 194 161 142 145 110 119 91 25 307 237 239 248 243 204
62 82 99 123 176 176 180 174 170 164 184 137 143 147 146 158 152 211 196 182 163 159 158 160 161 154 114 115 50 75 119 151 88 82 108 121 127 236 148 271 242 254 255 243 202
72 78 106 84 51 133 139 174 156 149 225 138 128 128 149 164 175 205 181 164 159 155 155 160 166 142 91 111 84 94 61 50 111 56 62 61 305 300 219 229 314 247 243 220 218
59 93 71 76 76 118 101 153 181 149 143 128 121 126 161 169 282 208 162 158 156 156 154 169 170 134 121 115 97 84 121 76 87 57 27 320 309 287 273 282 268 242 237 236 238
57 70 83 87 84 103 106 108 120 140 121 141 148 134 163 29 266 161 155 158 152 151 153 168 190 138 108 75 71 103 103 103 66 40 26 360 308 337 249 350 356 252 251 255 245
63 71 78 85 95 105 109 112 112 118 130 140 133 145 146 193 129 99 151 157 149 149 151 157 143 153 120 103 108 115 78 86 25 358 2 333 227 228 354 7 3 315 283 248 230
75 85 86 93 103 108 114 110 108 112 122 145 136 139 85 124 85 117 141 146 144 143 145 133 115 102 67 117 50 62 56 73 355 358 345 25 268 187 104 338 312 288 270 245 214
74 87 100 97 101 114 113 108 114 102 105 137 130 109 102 118 98 109 130 134 133 130 127 116 100 79 85 76 37 9 169 162 348 39 325 44 272 238 309 323 311 305 270 239 218
95 92 102 110 113 119 106 99 88 94 96 103 93 97 103 80 73 92 114 126 121 123 108 77 58 71 35 54 198 201 134 280 266 341 359 304 271 285 313 316 317 316 281 228 241
108 88 92 106 119 126 128 125 84 72 71 72 74 88 100 92 69 92 111 113 109 88 64 28 67 66 73 31 90 107 90 17 343 19 340 285 286 293 310 331 355 9 77 164 197
338 335 21 206 177 156 167 50 112 125 70 64 72 78 69 66 75 72 97 106 78 79 352 32 79 256 307 56 77 50 76 347 293 6 359 347 297 294 314 18 14 57 99 111 121
37 52 67 89 91 105 117 113 115 97 84 36 42 46 36 61 45 21 50 83 84 59 26 107 176 291 95 46 69 41 81 45 244 323 60 328 310 347 208 87 78 85 94 112 114
45 32 34 84 87 89 82 97 88 44 83 335 356 27 6 85 53 36 42 75 45 124 93 87 314 97 80 75 39 109 11 82 30 35 277 21 279 292 301 189 68 89 108 111 118
17 18 33 19 49 22 31 360 347 183 67 313 335 14 35 82 126 21 36 60 82 93 98 256 49 62 67 51 9 135 61 60 71 88 34 360 59 269 321 227 212 172 144 134 130
8 0 353 359 9 22 343 347 15 44 264 350 324 352 40 30 42 49 62 69 99 74 38 89 60 54 105 61 63 132 71 41 48 83 19 337 118 281 202 208 167 192 175 159 147
17 19 12 11 9 352 348 351 38 89 279 318 2 11 70 13 32 38 33 27 67 73 11 26 4 3 73 89 44 75 57 335 348 11 224 276 35 247 253 241 204 191 180 166 154
37 30 38 35 18 3 350 54 70 225 225 291 344 50 77 9 24 25 72 61 31 71 95 128 328 46 2 77 160 81 148 153 222 259 277 339 239 255 216 283 238 188 176 171 167
338 32 31 28 13 354 14 50 176 194 300 115 41 66 25 19 105 67 48 104 38 44 121 130 238 1 59 68 104 159 121 151 101 23 30 242 285 293 233 243 178 183 184 189 177
42 50 16 0 354 360 71 115 47 289 333 314 99 47 120 354 58 59 10 291 103 46 62 179 91 355 95 125 36 110 157 72 6 196 272 285 275 242 222 215 217 211 209 198 190
21 87 6 3 4 53 96 139 32 10 13 28 119 91 97 131 112 130 156 219 136 116 75 121 97 301 34 202 178 124 204 60 117 159 195 289 268 217 227 207 200 213 211 199 194
4 44 0 5 43 53 67 36 43 15 28 21 71 51 82 126 110 125 158 159 128 146 88 50 131 218 207 133 167 171 195 156 128 224 254 130 275 336 279 224 206 213 210 199 200
36 1 11 35 78 23 119 78 78 41 38 38 60 52 24 39 11 30 41 18 51 80 154 180 21 355 345 20 24 219 200 158 114 91 202 155 261 336 343 194 214 227 217 204 201
9 20 21 45 65 114 83 13 85 69 93 73 133 101 95 71 51 139 147 22 57 87 106 112 142 185 194 196 143 235 209 188 158 146 196 229 285 288 295 239 234 234 229 212 209
44 72 25 358 11 22 48 121 61 13 23 19 71 122 153 144 160 190 169 164 130 153 120 124 220 168 259 245 240 237 223 191 202 212 197 259 228 265 245 239 245 246 244 213 213
74 91 78 74 12 15 1 357 359 270 159 2 85 357 225 196 198 215 160 209 203 150 157 32 248 157 284 187 202 255 235 225 222 236 254 264 280 283 280 276 257 252 233 208 217
35 34 96 17 50 93 331 331 339 348 323 315 205 121 211 233 248 258 233 304 308 160 186 145 144 103 269 343 304 283 232 187 192 210 195 211 244 260 256 266 275 261 214 207 214
Height
1460 1460 1459 1461 1462 1465 1467 1470 1473 1474 1476 1475 1482 1486 1489 1492 1494 1496 1498 1499 1499 1502 1504 1507 1511 1512 1514 1515 1515 1515 1526 1536 1531 1531 1526 1527 1528 1531 1532 1533 1534 1534 1534 1535 1535
1462 1462 1462 1464 1463 1465 1467 1469 1471 1473 1476 1477 1481 1485 1489 1493 1495 1497 1498 1497 1498 1501 1504 1507 1511 1512 1514 1514 1515 1516 1528 1526 1524 1525 1526 1527 1529 1531 1532 1532 1532 1532 1533 1533 1534
1464 1465 1465 1465 1465 1466 1467 1469 1471 1474 1476 1478 1482 1487 1490 1494 1497 1497 1496 1497 1498 1501 1505 1507 1511 1512 1513 1515 1516 1519 1526 1524 1526 1526 1527 1529 1530 1530 1531 1531 1530 1531 1531 1532 1533
1467 1467 1466 1465 1466 1465 1468 1470 1471 1474 1478 1480 1487 1489 1492 1494 1501 1497 1496 1497 1499 1502 1505 1508 1511 1511 1514 1516 1516 1522 1525 1525 1526 1527 1528 1530 1530 1529 1530 1529 1529 1529 1530 1531 1532
1473 1466 1469 1468 1468 1468 1469 1470 1473 1476 1480 1487 1489 1493 1495 1497 1499 1497 1496 1497 1500 1503 1504 1508 1510 1510 1515 1517 1517 1520 1525 1526 1528 1528 1529 1530 1530 1529 1526 1527 1527 1528 1528 1529 1531
1479 1477 1474 1474 1475 1474 1474 1475 1476 1480 1487 1490 1491 1492 1496 1500 1500 1497 1497 1498 1500 1503 1505 1509 1510 1509 1513 1518 1518 1522 1525 1528 1529 1530 1530 1531 1530 1528 1525 1525 1525 1525 1526 1526 1528
1483 1481 1481 1480 1480 1480 1480 1481 1484 1486 1488 1489 1491 1495 1496 1502 1500 1498 1498 1499 1501 1504 1506 1509 1510 1511 1513 1518 1522 1523 1527 1529 1531 1531 1530 1530 1531 1529 1526 1525 1525 1525 1524 1524 1525
1487 1487 1486 1485 1485 1486 1486 1487 1489 1490 1492 1493 1494 1496 1497 1503 1502 1500 1499 1500 1502 1505 1507 1510 1511 1511 1514 1519 1523 1527 1531 1535 1533 1532 1530 1529 1533 1525 1525 1524 1524 1523 1522 1523 1524
1491 1490 1490 1490 1490 1490 1491 1491 1492 1494 1494 1495 1496 1495 1502 1504 1503 1501 1500 1501 1503 1507 1509 1511 1512 1515 1519 1524 1534 1537 1537 1534 1532 1535 1534 1531 1530 1524 1524 1522 1518 1517 1517 1519 1521
1495 1494 1493 1493 1493 1493 1493 1494 1495 1495 1496 1497 1495 1498 1504 1506 1503 1502 1501 1503 1505 1508 1510 1512 1513 1521 1528 1533 1546 1537 1539 1536 1535 1539 1536 1534 1530 1525 1521 1520 1516 1513 1513 1516 1518
1498 1497 1497 1495 1495 1495 1495 1495 1498 1499 1498 1499 1500 1502 1504 1506 1505 1504 1504 1505 1507 1510 1517 1516 1529 1545 1536 1534 1533 1535 1535 1538 1536 1540 1539 1535 1532 1525 1519 1518 1516 1513 1512 1515 1517
1499 1498 1496 1497 1496 1495 1496 1496 1497 1500 1501 1501 1505 1505 1506 1506 1507 1506 1505 1507 1508 1519 1519 1525 1540 1537 1535 1534 1536 1538 1538 1542 1541 1540 1540 1538 1530 1522 1518 1518 1517 1515 1515 1516 1516
1501 1500 1497 1497 1497 1497 1497 1497 1498 1499 1501 1509 1508 1507 1509 1509 1509 1508 1507 1508 1514 1523 1526 1532 1539 1536 1534 1538 1539 1546 1543 1546 1548 1545 1543 1543 1529 1522 1519 1518 1518 1517 1518 1519 1519
1502 1501 1500 1499 1501 1499 1500 1499 1499 1499 1514 1517 1511 1511 1511 1509 1512 1511 1510 1512 1518 1527 1529 1537 1537 1535 1537 1541 1542 1541 1547 1547 1549 1553 1561 1549 1549 1526 1520 1518 1518 1519 1520 1520 1520
1501 1501 1500 1500 1500 1500 1502 1500 1500 1501 1536 1517 1514 1513 1512 1511 1515 1513 1512 1512 1520 1526 1530 1540 1537 1538 1541 1543 1542 1546 1548 1550 1552 1560 1562 1551 1569 1528 1522 1519 1518 1519 1519 1520 1520
1503 1501 1499 1501 1501 1501 1501 1501 1501 1518 1538 1521 1516 1514 1514 1513 1515 1516 1515 1515 1522 1527 1532 1539 1539 1541 1542 1544 1545 1548 1551 1557 1562 1566 1576 1557 1566 1538 1525 1516 1516 1518 1518 1519 1520
1504 1501 1500 1500 1501 1500 1500 1501 1520 1535 1526 1524 1521 1517 1518 1521 1519 1519 1522 1526 1531 1543 1552 1542 1544 1542 1542 1546 1547 1549 1561 1576 1571 1581 1566 1564 1569 1529 1515 1513 1514 1515 1516 1518 1519
1506 1504 1501 1501 1501 1501 1501 1504 1530 1526 1525 1522 1522 1521 1524 1523 1524 1524 1527 1534 1533 1535 1555 1553 1557 1544 1545 1545 1548 1553 1556 1576 1568 1574 1573 1562 1555 1523 1513 1512 1511 1513 1516 1517 1519
1507 1508 1505 1503 1502 1501 1502 1527 1531 1525 1523 1522 1521 1524 1526 1524 1525 1528 1532 1535 1535 1534 1539 1543 1544 1546 1546 1546 1548 1554 1562 1558 1572 1578 1581 1560 1536 1514 1512 1511 1512 1512 1514 1516 1518
1508 1507 1506 1504 1503 1501 1506 1527 1527 1525 1524 1523 1523 1524 1527 1528 1528 1529 1532 1535 1535 1535 1535 1540 1548 1548 1548 1547 1549 1548 1554 1562 1574 1558 1558 1557 1543 1531 1515 1512 1510 1512 1513 1515 1517
1508 1507 1507 1504 1503 1503 1527 1530 1528 1527 1526 1525 1525 1526 1528 1528 1529 1532 1534 1536 1534 1536 1536 1540 1545 1551 1548 1549 1551 1555 1556 1560 1562 1565 1557 1552 1538 1511 1509 1507 1508 1509 1511 1513 1515
1510 1510 1508 1505 1507 1517 1528 1526 1526 1526 1526 1526 1527 1528 1529 1529 1530 1532 1532 1534 1534 1534 1537 1541 1549 1558 1545 1546 1546 1547 1549 1554 1563 1553 1569 1568 1542 1507 1506 1504 1506 1508 1511 1513 1514
1513 1513 1512 1506 1522 1528 1526 1526 1527 1527 1528 1527 1529 1530 1530 1533 1533 1535 1535 1537 1536 1536 1539 1540 1550 1569 1548 1551 1547 1546 1547 1548 1555 1559 1562 1562 1527 1507 1506 1506 1508 1509 1509 1511 1512
1517 1519 1516 1515 1520 1523 1527 1530 1529 1528 1528 1528 1529 1529 1530 1534 1535 1535 1537 1538 1538 1539 1539 1541 1550 1547 1556 1539 1543 1543 1543 1546 1546 1564 1549 1540 1524 1509 1506 1508 1507 1506 1506 1508 1509
1520 1528 1529 1531 1527 1528 1527 1528 1530 1530 1530 1529 1529 1529 1530 1532 1533 1534 1535 1536 1537 1537 1538 1540 1545 1551 1545 1543 1542 1538 1536 1541 1544 1532 1533 1513 1522 1503 1505 1504 1502 1501 1503 1505 1506
1523 1526 1528 1529 1530 1531 1533 1532 1531 1529 1529 1530 1531 1531 1532 1533 1533 1534 1535 1535 1534 1538 1539 1541 1542 1545 1541 1534 1537 1535 1529 1527 1528 1528 1529 1518 1513 1498 1497 1497 1496 1495 1497 1499 1502
1529 1528 1526 1530 1531 1531 1536 1535 1534 1533 1532 1531 1531 1531 1531 1531 1530 1531 1532 1533 1534 1536 1540 1544 1546 1548 1539 1538 1536 1526 1510 1516 1516 1515 1511 1517 1496 1494 1495 1494 1492 1491 1492 1493 1496